Lid_Strength_Index
3 2 2 1 1 1 1 1 1 0 0 1 1 1 1 1 0 -0 -1 -1 -1 -2 -1 -1 -0 -0 -0 0 0 0 1 1 0 1 2 1 0 0 0 -0 -0 -0 -1
3 3 2 2 2 1 1 1 1 1 0 1 1 1 1 0 0 -0 -0 -1 -1 -1 -1 -0 -0 -0 0 0 0 0 1 1 0 2 3 4 3 1 1 0 0 0 -1
4 3 3 2 2 2 2 1 1 1 0 0 0 0 -0 0 1 1 1 -0 -1 -1 -1 -1 -0 -0 -0 1 0 -0 0 2 1 0 2 5 6 3 1 1 0 0 0
3 3 3 3 2 2 1 1 1 1 0 0 1 1 2 2 1 0 0 0 -1 -1 -1 -1 -1 -0 -0 0 0 0 0 1 2 1 1 1 2 5 5 2 1 0 1
3 3 3 2 2 1 1 1 1 1 1 0 0 1 1 1 1 0 1 0 -0 -1 -0 -1 -1 -0 -0 -0 -0 0 0 0 1 2 2 1 2 2 3 5 3 1 1
3 3 2 2 2 1 1 1 1 1 1 1 1 1 1 1 1 1 1 1 0 0 -1 -1 -0 -0 -0 0 -0 -0 -0 -0 0 1 1 2 3 3 3 4 3 3 2
3 3 3 3 2 2 2 2 2 2 1 1 1 1 1 1 1 1 1 1 1 1 0 -0 0 0 -0 -0 -0 0 0 0 1 1 1 1 1 1 2 3 3 4 2
3 3 3 3 2 2 2 2 2 2 1 1 1 1 1 1 1 1 1 1 1 1 0 0 -0 -0 -0 -0 -0 0 0 0 0 1 1 1 1 1 1 2 3 4 3
3 3 3 3 2 2 2 2 2 2 2 1 1 1 1 1 1 1 0 0 0 0 0 -0 0 -0 -0 -0 -0 0 1 0 0 0 0 1 1 0 1 1 1 3 5
3 3 3 3 2 2 2 2 2 2 2 1 1 1 1 1 1 1 1 1 0 0 0 0 0 0 -0 -0 0 0 -0 0 0 0 1 1 0 1 0 1 1 1 3
3 3 3 2 2 2 2 2 2 2 2 1 1 1 1 1 1 1 1 1 0 0 0 0 0 0 0 0 0 0 0 1 1 0 1 1 0 1 1 1 1 1 2
3 2 3 2 2 2 2 2 2 2 2 1 1 1 1 1 1 1 1 0 1 0 0 0 0 0 0 0 1 1 0 1 1 1 1 1 1 1 1 1 1 1 1
2 2 3 3 3 2 2 2 2 2 1 1 2 1 1 1 1 1 1 1 1 1 0 0 1 1 1 1 0 1 1 1 1 1 1 1 1 1 1 1 1 1 1
3 3 1 2 3 2 2 2 2 1 1 2 2 2 2 1 1 1 1 1 1 1 1 1 1 1 1 0 0 1 1 1 1 0 1 1 1 1 1 1 1 1 1
3 4 3 2 2 3 2 2 2 2 1 2 2 2 1 1 1 1 1 1 1 1 1 1 1 1 1 1 1 1 1 1 1 1 0 0 0 0 0 1 1 1 2
3 3 3 3 3 3 3 2 2 2 1 2 2 2 2 1 1 1 1 1 1 1 1 1 1 1 1 2 1 1 1 1 1 1 1 0 -0 0 1 1 0 0 2
3 3 3 3 3 3 2 3 2 2 2 2 2 2 2 2 2 1 1 1 1 1 1 1 1 1 1 2 2 2 1 1 1 1 1 1 0 0 0 1 0 0 0
3 2 2 3 2 2 2 2 2 2 2 2 2 2 2 2 2 2 2 2 1 1 1 1 1 1 1 5 4 2 1 1 1 1 1 1 1 0 1 1 1 1 0
2 2 2 2 2 2 2 2 2 2 2 2 2 2 2 2 2 2 2 2 2 2 2 1 1 1 1 5 5 4 1 2 1 1 0 1 1 1 3 1 2 1 1
2 2 2 1 2 2 2 2 3 3 3 2 2 2 2 2 2 2 2 1 1 2 1 1 1 2 1 6 7 4 1 2 1 1 1 3 1 4 4 1 1 2 2
2 2 2 2 1 2 2 3 3 3 2 2 2 2 2 2 1 1 1 1 1 1 2 2 1 1 1 1 7 7 1 1 2 1 1 1 5 6 6 4 1 1 2
2 1 1 1 2 2 2 3 3 2 2 2 2 2 2 2 1 2 2 2 2 2 2 2 2 1 1 3 8 8 7 3 1 1 1 1 6 7 6 5 1 4 3
2 2 1 3 2 2 2 3 3 2 2 2 2 2 2 2 1 2 2 2 2 2 3 3 3 2 1 1 7 9 8 6 2 2 5 8 7 7 6 5 3 5 1
3 3 3 4 3 2 2 2 2 2 2 2 2 2 2 2 2 2 2 2 2 3 3 3 3 2 2 1 1 2 4 6 3 5 4 4 3 3 2 3 3 1 1
3 3 3 4 3 3 2 2 2 2 2 2 2 2 2 2 5 8 8 2 6 5 2 2 2 2 3 2 3 2 1 1 2 1 1 2 2 2 2 1 1 1 1
3 4 4 4 3 3 2 2 2 2 2 3 3 3 2 3 4 5 7 14 13 14 14 11 4 7 9 11 11 11 10 9 6 2 2 2 2 2 2 2 2 1 1